カタログに戻る

INSAT 3A

運用中通信GEO
NORAD 27714·PAYLOAD·🇮🇳 India

打ち上げ Apr 9, 2003 から Guiana Space Centre

Loading…

TLE

最新Source: Space-Track

元期: Sep 14, 2026, 12:57 UTC

1 27714U 03013A   26257.54006532 -.00000108  00000-0  00000-0 0  9995
2 27714   9.0400  59.9899 0004811 342.1185 318.0628  0.99813103 85615

AllMySatでINSAT 3Aをリアルタイム追跡

Download on the App Store